Location: La Sioule Rivi�re
(46.3664°N, 3.3197°E)
Time: 13:06:40
(UTC+00:00)

ERBS - Pass Details

Date: 29 October 2020
Orbit: 408 x 422 km, 57.0° (Epoch: 23 November)

Event Time Altitude Azimuth Distance (km) Brightness Sun altitude
Rises 18:17:24 0° 310° (NW) 2,369 6.8 -18.0°
Reaches altitude 10° 18:20:03 10° 332° (NNW) 1,507 5.4 -18.5°
Enters shadow 18:22:04 16° 9° (N) 1,182 4.4 -18.8°
